Location: Brompton
(51.4000°N, 0.5333°E)
Time: 23:46:16
(UTC+00:00)

X-37B - Visible Passes

Search period start: 26 January 2022 00:00
Search period end: 05 February 2022 00:00
Orbit: 334 x 337 km, 45.0° (Epoch: 11 January)

Date Brightness Start Highest point End Pass type
(mag) Time Alt. Az. Time Alt. Az. Time Alt. Az.
29 Jan 2.7 18:17:09 10° SSW 18:18:42 14° SSE 18:19:08 13° SSE visible
30 Jan 2.3 18:36:42 10° SW 18:38:45 19° S 18:38:45 19° S visible
31 Jan 2.9 17:22:36 10° SSW 17:24:08 14° SSE 17:25:41 10° SE visible
31 Jan 2.5 18:56:43 10° SW 18:58:21 20° SSW 18:58:21 20° SSW visible
01 Feb 2.4 17:42:08 10° SW 17:44:16 19° S 17:46:25 10° ESE visible
01 Feb 3.1 19:16:59 10° WSW 19:17:57 16° SW 19:17:57 16° SW visible
02 Feb 2.2 18:02:09 10° SW 18:04:28 22° S 18:06:20 13° SE visible
02 Feb 3.8 19:37:28 10° WSW 19:37:34 10° WSW 19:37:34 10° WSW visible
03 Feb 2.4 18:22:24 10° WSW 18:24:40 21° S 18:25:59 16° SSE visible
04 Feb 2.7 18:42:54 10° WSW 18:44:50 17° SSW 18:45:41 15° S visible
